| time (UTC) | temp F | wind direction | speed MPH | gust MPH | rain 1hr in | rain 24hr in | rain mn in | humidity % | barometer mb |
| 20260503040109 | 53 | 0 | 0.0 | 0.0 | 0.00 | 0.01 | 0.01 | 59 | 1019.6 |
| 20260503040051 | 53 | 89 | 0.0 | 0.0 | 0.00 | 0.01 | 0.01 | 70 | 1019.6 |
| 20260503034606 | 53 | 89 | 0.0 | 0.0 | 0.00 | 0.01 | 0.01 | 69 | 1019.6 |
| 20260503034551 | 53 | 0 | 0.0 | 0.0 | 0.00 | 0.01 | 0.01 | 58 | 1019.4 |
| 20260503033109 | 54 | 0 | 0.0 | 0.0 | 0.00 | 0.01 | 0.01 | 58 | 1019.3 |
| 20260503033055 | 54 | 89 | 0.0 | 0.0 | 0.00 | 0.01 | 0.01 | 70 | 1019.4 |
| 20260503031555 | 55 | 0 | 0.0 | 0.0 | 0.00 | 0.01 | 0.01 | 57 | 1019.2 |
| 20260503031553 | 55 | 89 | 0.0 | 0.0 | 0.00 | 0.01 | 0.01 | 68 | 1019.3 |
| 20260503030052 | 55 | 0 | 0.0 | 0.0 | 0.00 | 0.01 | 0.01 | 58 | 1019.3 |
| 20260503030049 | 55 | 89 | 0.0 | 0.0 | 0.00 | 0.01 | 0.01 | 70 | 1019.2 |
| 20260503024649 | 56 | 89 | 0.0 | 2.0 | 0.00 | 0.01 | 0.01 | 70 | 1019.1 |
| 20260503024554 | 56 | 0 | 0.0 | 2.0 | 0.00 | 0.01 | 0.01 | 58 | 1019.0 |
| 20260503023101 | 57 | 0 | 0.0 | 0.0 | 0.00 | 0.01 | 0.01 | 60 | 1019.0 |
| 20260503023047 | 57 | 89 | 0.0 | 0.0 | 0.00 | 0.01 | 0.01 | 71 | 1019.2 |
| 20260503021555 | 57 | 0 | 0.0 | 0.0 | 0.00 | 0.01 | 0.01 | 60 | 1018.7 |
| 20260503021546 | 57 | 89 | 0.0 | 0.0 | 0.00 | 0.01 | 0.01 | 71 | 1018.9 |
| 20260503020057 | 58 | 0 | 0.0 | 1.0 | 0.00 | 0.01 | 0.01 | 58 | 1018.5 |
| 20260503020046 | 58 | 89 | 0.0 | 0.0 | 0.00 | 0.01 | 0.01 | 70 | 1018.6 |
| 20260503014553 | 59 | 76 | 0.0 | 0.0 | 0.00 | 0.03 | 0.01 | 70 | 1018.5 |
| 20260503013105 | 60 | 0 | 0.0 | 2.0 | 0.00 | 0.03 | 0.01 | 56 | 1018.3 |
| 20260503013045 | 60 | 76 | 0.0 | 2.0 | 0.00 | 0.03 | 0.01 | 68 | 1018.4 |
| 20260503011603 | 62 | 0 | 0.0 | 1.0 | 0.00 | 0.03 | 0.01 | 54 | 1018.2 |
| 20260503011547 | 63 | 76 | 0.0 | 1.0 | 0.00 | 0.03 | 0.01 | 65 | 1018.1 |
| 20260503010056 | 65 | 0 | 0.0 | 1.0 | 0.00 | 0.03 | 0.01 | 46 | 1018.0 |
| 20260503010043 | 65 | 76 | 0.0 | 1.0 | 0.00 | 0.03 | 0.01 | 58 | 1018.0 |
| 20260503004615 | 67 | 0 | 0.0 | 0.0 | 0.00 | 0.03 | 0.01 | 44 | 1017.7 |
| 20260503004543 | 67 | 360 | 0.0 | 0.0 | 0.00 | 0.03 | 0.01 | 56 | 1017.8 |
| 20260503003059 | 69 | 0 | 0.0 | 0.0 | 0.00 | 0.03 | 0.01 | 42 | 1017.6 |
| 20260503003051 | 69 | 360 | 0.0 | 0.0 | 0.00 | 0.03 | 0.01 | 53 | 1017.8 |
| 20260503001602 | 72 | 348 | 0.0 | 0.0 | 0.00 | 0.03 | 0.01 | 48 | 1017.7 |
| 20260503001557 | 72 | 0 | 0.0 | 0.0 | 0.00 | 0.03 | 0.01 | 37 | 1017.6 |
| 20260503000107 | 72 | 0 | 0.0 | 3.0 | 0.00 | 0.03 | 0.01 | 38 | 1017.6 |
| 20260503000047 | 72 | 348 | 0.0 | 3.0 | 0.00 | 0.03 | 0.01 | 49 | 1017.8 |
| 20260502234553 | 72 | 348 | 0.0 | 4.0 | 0.00 | 0.09 | 0.01 | 38 | 1017.5 |
| 20260502234548 | 72 | 348 | 0.0 | 4.0 | 0.00 | 0.09 | 0.01 | 49 | 1017.7 |
| 20260502233100 | 73 | 320 | 2.0 | 8.0 | 0.00 | 0.09 | 0.01 | 34 | 1017.5 |
| 20260502233040 | 73 | 320 | 1.0 | 8.0 | 0.00 | 0.09 | 0.01 | 46 | 1017.7 |
| 20260502231555 | 72 | 355 | 2.0 | 8.0 | 0.00 | 0.09 | 0.01 | 34 | 1017.5 |
| 20260502231540 | 72 | 355 | 2.0 | 8.0 | 0.00 | 0.09 | 0.01 | 45 | 1017.6 |
| 20260502230054 | 73 | 322 | 2.0 | 8.0 | 0.00 | 0.09 | 0.01 | 35 | 1017.5 |
| 20260502230039 | 73 | 90 | 2.0 | 8.0 | 0.00 | 0.09 | 0.01 | 45 | 1017.6 |
| 20260502224554 | 73 | 0 | 0.0 | 8.0 | 0.00 | 0.15 | 0.01 | 37 | 1017.5 |
| 20260502224539 | 73 | 309 | 0.0 | 8.0 | 0.00 | 0.15 | 0.01 | 48 | 1017.6 |
| 20260502223053 | 71 | 25 | 2.0 | 6.0 | 0.00 | 0.15 | 0.01 | 37 | 1017.6 |
| 20260502223039 | 71 | 347 | 2.0 | 5.0 | 0.00 | 0.15 | 0.01 | 48 | 1017.6 |
| 20260502221555 | 73 | 0 | 1.0 | 9.0 | 0.00 | 0.15 | 0.01 | 37 | 1017.5 |
| 20260502221542 | 73 | 5 | 1.0 | 8.0 | 0.00 | 0.15 | 0.01 | 49 | 1017.6 |
| 20260502220056 | 73 | 325 | 4.0 | 9.0 | 0.00 | 0.15 | 0.01 | 34 | 1017.4 |
| 20260502220038 | 73 | 336 | 4.0 | 9.0 | 0.00 | 0.15 | 0.01 | 46 | 1017.6 |
| 20260502214552 | 71 | 360 | 4.0 | 10.0 | 0.00 | 0.22 | 0.01 | 36 | 1017.4 |
| 20260502214546 | 71 | 10 | 4.0 | 10.0 | 0.00 | 0.22 | 0.01 | 47 | 1017.7 |
| 20260502213054 | 73 | 30 | 4.0 | 15.0 | 0.00 | 0.22 | 0.01 | 34 | 1017.4 |
| 20260502213039 | 73 | 30 | 4.0 | 15.0 | 0.00 | 0.22 | 0.01 | 45 | 1017.6 |
| 20260502211556 | 73 | 13 | 4.0 | 9.0 | 0.00 | 0.22 | 0.01 | 34 | 1017.4 |
| 20260502211534 | 73 | 331 | 4.0 | 9.0 | 0.00 | 0.22 | 0.01 | 46 | 1017.8 |
| 20260502210052 | 73 | 65 | 2.0 | 10.0 | 0.00 | 0.22 | 0.01 | 35 | 1017.7 |
| 20260502210034 | 73 | 65 | 3.0 | 8.0 | 0.00 | 0.22 | 0.01 | 47 | 1017.8 |
| 20260502204635 | 73 | 313 | 6.0 | 9.0 | 0.00 | 0.23 | 0.01 | 47 | 1017.9 |
| 20260502204553 | 73 | 325 | 3.0 | 11.0 | 0.00 | 0.23 | 0.01 | 35 | 1017.8 |
| 20260502203053 | 73 | 296 | 4.0 | 12.0 | 0.00 | 0.23 | 0.01 | 36 | 1018.0 |
| 20260502203030 | 73 | 323 | 4.0 | 10.0 | 0.00 | 0.23 | 0.01 | 47 | 1018.2 |
| 20260502201552 | 72 | 93 | 3.0 | 10.0 | 0.00 | 0.23 | 0.01 | 36 | 1018.1 |
| 20260502201529 | 72 | 65 | 3.0 | 10.0 | 0.00 | 0.23 | 0.01 | 48 | 1018.5 |
| 20260502200055 | 72 | 329 | 3.0 | 14.0 | 0.00 | 0.23 | 0.01 | 36 | 1018.3 |
| 20260502200029 | 72 | 360 | 3.0 | 14.0 | 0.00 | 0.23 | 0.01 | 47 | 1018.7 |
| 20260502194551 | 72 | 0 | 2.0 | 13.0 | 0.00 | 0.23 | 0.01 | 37 | 1018.5 |
| 20260502194529 | 72 | 90 | 3.0 | 13.0 | 0.00 | 0.23 | 0.01 | 49 | 1018.8 |
| 20260502193052 | 71 | 11 | 4.0 | 9.0 | 0.00 | 0.23 | 0.01 | 37 | 1018.7 |
| 20260502193026 | 71 | 15 | 4.0 | 9.0 | 0.00 | 0.23 | 0.01 | 50 | 1018.9 |
| 20260502191601 | 72 | 5 | 2.0 | 11.0 | 0.00 | 0.23 | 0.01 | 40 | 1018.7 |
| 20260502191524 | 72 | 5 | 4.0 | 11.0 | 0.00 | 0.23 | 0.01 | 51 | 1018.9 |
| 20260502190052 | 71 | 40 | 2.0 | 11.0 | 0.00 | 0.23 | 0.01 | 43 | 1018.7 |
| 20260502190023 | 71 | 40 | 2.0 | 9.0 | 0.00 | 0.24 | 0.01 | 54 | 1019.2 |
| 20260502184552 | 71 | 310 | 4.0 | 10.0 | 0.00 | 0.24 | 0.01 | 44 | 1018.9 |
| 20260502184527 | 71 | 348 | 4.0 | 10.0 | 0.00 | 0.24 | 0.01 | 54 | 1019.4 |
| 20260502183054 | 70 | 344 | 4.0 | 10.0 | 0.00 | 0.24 | 0.01 | 46 | 1019.2 |
| 20260502183020 | 70 | 350 | 6.0 | 10.0 | 0.00 | 0.24 | 0.01 | 57 | 1019.6 |
| 20260502181553 | 70 | 325 | 4.0 | 10.0 | 0.00 | 0.24 | 0.01 | 46 | 1019.6 |
| 20260502181521 | 70 | 335 | 4.0 | 10.0 | 0.00 | 0.24 | 0.01 | 56 | 1019.8 |
| 20260502163108 | 66 | 334 | 3.0 | 9.0 | 0.00 | 0.32 | 0.01 | 42 | 1020.0 |
| 20260502163006 | 66 | 304 | 3.0 | 9.0 | 0.00 | 0.32 | 0.01 | 53 | 1020.3 |
| 20260502161559 | 66 | 0 | 2.0 | 7.0 | 0.00 | 0.32 | 0.01 | 45 | 1020.0 |
| 20260502161502 | 66 | 292 | 1.0 | 6.0 | 0.00 | 0.32 | 0.01 | 55 | 1020.4 |
| 20260502151600 | 62 | 113 | 3.0 | 8.0 | 0.00 | 0.41 | 0.01 | 61 | 1020.4 |
| 20260502151557 | 62 | 113 | 2.0 | 8.0 | 0.00 | 0.41 | 0.01 | 49 | 1020.0 |
| 20260502150112 | 62 | 110 | 0.0 | 9.0 | 0.00 | 0.41 | 0.01 | 50 | 1020.0 |
| 20260502150103 | 62 | 38 | 1.0 | 9.0 | 0.00 | 0.41 | 0.01 | 62 | 1020.4 |
| 20260502130108 | 54 | 0 | 0.0 | 4.0 | 0.00 | 0.66 | 0.01 | 58 | 1018.6 |
| 20260502123100 | 50 | 0 | 0.0 | 0.0 | 0.00 | 0.82 | 0.01 | 58 | 1018.0 |
| 20260502123014 | 50 | 360 | 0.0 | 0.0 | 0.00 | 0.82 | 0.01 | 70 | 1018.4 |
| 20260502121559 | 48 | 0 | 0.0 | 0.0 | 0.00 | 0.82 | 0.01 | 58 | 1017.8 |
| 20260502121512 | 48 | 360 | 0.0 | 0.0 | 0.00 | 0.82 | 0.01 | 69 | 1018.2 |
| 20260502114557 | 47 | 0 | 0.0 | 0.0 | 0.00 | 0.87 | 0.01 | 57 | 1017.2 |
| 20260502114511 | 47 | 360 | 0.0 | 0.0 | 0.00 | 0.87 | 0.01 | 69 | 1017.6 |
| 20260502113053 | 47 | 0 | 0.0 | 0.0 | 0.00 | 0.87 | 0.01 | 57 | 1017.0 |
| 20260502113004 | 47 | 360 | 0.0 | 0.0 | 0.00 | 0.87 | 0.01 | 69 | 1017.4 |
| 20260502111555 | 47 | 0 | 0.0 | 0.0 | 0.00 | 0.87 | 0.01 | 57 | 1016.8 |
| 20260502111501 | 47 | 360 | 0.0 | 0.0 | 0.00 | 0.87 | 0.01 | 69 | 1017.2 |
| 20260502110103 | 48 | 360 | 0.0 | 0.0 | 0.00 | 0.87 | 0.01 | 69 | 1017.2 |
| 20260502110055 | 48 | 0 | 0.0 | 0.0 | 0.00 | 0.87 | 0.01 | 57 | 1016.7 |
| 20260502104558 | 48 | 360 | 0.0 | 0.0 | 0.00 | 0.87 | 0.01 | 68 | 1016.8 |
| 20260502104552 | 48 | 0 | 0.0 | 0.0 | 0.00 | 0.87 | 0.01 | 57 | 1016.4 |
| 20260502103101 | 49 | 360 | 0.0 | 0.0 | 0.00 | 0.87 | 0.01 | 68 | 1016.7 |
| 20260502103055 | 49 | 0 | 0.0 | 0.0 | 0.00 | 0.87 | 0.01 | 57 | 1016.3 |
| 20260502101618 | 50 | 360 | 0.0 | 0.0 | 0.00 | 0.87 | 0.01 | 68 | 1016.6 |
| 20260502101555 | 50 | 0 | 0.0 | 0.0 | 0.00 | 0.87 | 0.01 | 57 | 1016.2 |
| 20260502100114 | 50 | 360 | 0.0 | 0.0 | 0.00 | 0.87 | 0.01 | 68 | 1016.5 |
| 20260502080106 | 53 | 360 | 1.0 | 2.0 | 0.00 | 0.86 | 0.00 | 57 | 1015.6 |
| 20260502071535 | 53 | 360 | 1.0 | 3.0 | 0.00 | 0.86 | 0.00 | 68 | 1016.1 |
| 20260502070054 | 53 | 0 | 0.0 | 0.0 | 0.00 | 0.86 | 0.00 | 57 | 1015.6 |
| 20260502070045 | 53 | 360 | 0.0 | 0.0 | 0.00 | 0.86 | 0.00 | 68 | 1016.1 |
| 20260502064555 | 53 | 0 | 0.0 | 0.0 | 0.00 | 0.86 | 0.00 | 57 | 1015.5 |
| 20260502064533 | 53 | 360 | 0.0 | 0.0 | 0.00 | 0.86 | 0.00 | 68 | 1016.1 |
| 20260502063114 | 53 | 0 | 0.0 | 0.0 | 0.00 | 0.86 | 0.00 | 57 | 1015.6 |
| 20260502063036 | 53 | 360 | 0.0 | 0.0 | 0.00 | 0.86 | 0.00 | 68 | 1016.1 |
| 20260502061554 | 53 | 0 | 0.0 | 0.0 | 0.00 | 0.86 | 0.00 | 56 | 1015.4 |
| 20260502061531 | 53 | 360 | 0.0 | 0.0 | 0.00 | 0.86 | 0.00 | 68 | 1015.8 |
| 20260502060058 | 53 | 0 | 0.0 | 0.0 | 0.00 | 0.86 | 0.00 | 57 | 1015.2 |
| 20260502060032 | 53 | 360 | 0.0 | 0.0 | 0.00 | 0.86 | 0.00 | 68 | 1015.6 |
| 20260502054606 | 53 | 0 | 0.0 | 0.0 | 0.00 | 0.86 | 0.00 | 56 | 1015.4 |
| 20260502054527 | 53 | 360 | 0.0 | 0.0 | 0.00 | 0.86 | 0.00 | 68 | 1015.8 |
| 20260502053100 | 53 | 0 | 0.0 | 0.0 | 0.00 | 0.86 | 0.00 | 56 | 1015.5 |
| 20260502053023 | 53 | 360 | 0.0 | 0.0 | 0.00 | 0.86 | 0.00 | 68 | 1015.9 |
| 20260502051558 | 53 | 0 | 0.0 | 0.0 | 0.00 | 0.86 | 0.00 | 56 | 1015.4 |
| 20260502051524 | 53 | 360 | 0.0 | 0.0 | 0.00 | 0.86 | 0.00 | 68 | 1015.9 |
| 20260502050058 | 53 | 0 | 0.0 | 0.0 | 0.00 | 0.86 | 0.00 | 56 | 1015.3 |
| 20260502050013 | 53 | 360 | 0.0 | 0.0 | 0.00 | 0.87 | 0.86 | 68 | 1015.7 |
| 20260502044553 | 53 | 0 | 0.0 | 0.0 | 0.00 | 0.87 | 0.86 | 56 | 1015.4 |
| 20260502044513 | 53 | 360 | 0.0 | 0.0 | 0.00 | 0.87 | 0.86 | 68 | 1015.8 |
| 20260502043056 | 53 | 0 | 0.0 | 2.0 | 0.00 | 0.87 | 0.86 | 56 | 1015.6 |
| 20260502043015 | 53 | 360 | 0.0 | 2.0 | 0.00 | 0.87 | 0.86 | 68 | 1016.0 |
| 20260502041555 | 53 | 360 | 0.0 | 2.0 | 0.00 | 0.87 | 0.86 | 56 | 1015.7 |
| 20260502041512 | 53 | 360 | 0.0 | 2.0 | 0.00 | 0.87 | 0.86 | 68 | 1016.1 |